Total_Precipitation_Accumulation
0.21 0.22 0.31 0.45 0.43 0.29 0.11 0.03 0.02 0.03 0.04 0.05 0.06 0.08 0.07 0.08 0.13 0.29 0.29 0.21 0.21 0.24 0.35 0.61 0.95 1.13 1.13 1.05 0.95 0.85 0.78 0.72 0.75 0.79 0.81 0.78 0.72 0.69 0.70 0.75 0.78 0.86 0.95 0.93 0.93 0.87 0.84 0.75 0.65
0.23 0.34 0.54 0.64 0.48 0.29 0.11 0.03 0.02 0.03 0.04 0.05 0.07 0.08 0.08 0.09 0.11 0.18 0.28 0.28 0.25 0.28 0.39 0.61 0.94 1.18 1.22 1.17 1.08 1.01 1.00 0.93 0.89 0.92 0.95 0.93 0.91 0.85 0.83 0.85 0.87 0.88 0.90 0.83 0.79 0.68 0.61 0.51 0.47
0.37 0.54 0.75 0.71 0.52 0.28 0.11 0.04 0.04 0.05 0.06 0.07 0.08 0.10 0.11 0.15 0.15 0.20 0.30 0.37 0.40 0.43 0.54 0.78 1.05 1.26 1.34 1.26 1.24 1.21 1.19 1.16 1.11 1.04 1.05 1.07 1.03 0.98 0.92 0.89 0.89 0.84 0.81 0.73 0.67 0.55 0.43 0.38 0.34
0.61 0.80 0.85 0.71 0.50 0.24 0.11 0.06 0.07 0.08 0.07 0.08 0.11 0.17 0.18 0.17 0.21 0.26 0.38 0.48 0.53 0.59 0.71 0.98 1.21 1.36 1.43 1.32 1.31 1.34 1.35 1.36 1.32 1.18 1.12 1.14 1.13 1.04 0.93 0.88 0.81 0.72 0.68 0.66 0.56 0.48 0.40 0.34 0.33
0.89 1.02 0.86 0.66 0.43 0.22 0.10 0.09 0.10 0.11 0.11 0.12 0.15 0.22 0.26 0.24 0.26 0.39 0.56 0.66 0.70 0.82 0.94 1.16 1.45 1.63 1.67 1.57 1.50 1.48 1.46 1.46 1.47 1.37 1.25 1.27 1.27 1.22 1.05 0.89 0.76 0.65 0.62 0.58 0.52 0.45 0.41 0.37 0.35
1.17 1.17 0.91 0.58 0.35 0.21 0.11 0.10 0.11 0.14 0.14 0.16 0.22 0.28 0.38 0.37 0.40 0.51 0.75 0.88 0.92 1.03 1.17 1.41 1.70 1.82 1.91 1.82 1.73 1.70 1.66 1.55 1.52 1.52 1.45 1.40 1.41 1.40 1.19 0.93 0.79 0.72 0.67 0.60 0.55 0.51 0.45 0.40 0.36
1.18 1.18 0.86 0.45 0.30 0.25 0.14 0.12 0.16 0.17 0.17 0.19 0.25 0.36 0.49 0.56 0.66 0.74 0.93 1.13 1.23 1.33 1.50 1.66 1.85 1.96 2.16 2.01 1.83 1.84 1.81 1.70 1.62 1.60 1.53 1.43 1.41 1.36 1.20 0.98 0.87 0.82 0.76 0.67 0.61 0.59 0.53 0.46 0.39
1.18 1.28 0.86 0.43 0.28 0.28 0.19 0.16 0.19 0.21 0.21 0.22 0.32 0.44 0.55 0.68 0.86 1.05 1.25 1.36 1.56 1.67 1.84 1.92 2.05 2.12 2.30 2.27 2.00 1.82 1.72 1.67 1.69 1.61 1.40 1.19 1.19 1.24 1.19 0.94 0.87 0.86 0.78 0.70 0.66 0.62 0.57 0.48 0.38
1.21 1.29 0.83 0.46 0.34 0.30 0.25 0.27 0.25 0.24 0.32 0.36 0.42 0.50 0.62 0.82 1.12 1.39 1.63 1.73 1.91 2.07 2.13 2.19 2.20 2.18 2.29 2.38 2.20 2.08 1.92 1.82 1.74 1.65 1.38 1.22 1.26 1.22 1.13 0.91 0.76 0.82 0.79 0.75 0.75 0.73 0.64 0.50 0.39
1.25 1.05 0.61 0.40 0.37 0.36 0.31 0.33 0.34 0.40 0.45 0.51 0.61 0.70 0.86 1.15 1.54 1.72 1.82 1.89 2.01 2.18 2.27 2.37 2.32 2.29 2.37 2.41 2.36 2.37 2.21 2.04 1.88 1.67 1.51 1.40 1.30 1.30 1.15 1.06 0.86 0.86 0.86 0.83 0.83 0.76 0.73 0.59 0.43
0.91 0.76 0.52 0.41 0.39 0.40 0.41 0.38 0.40 0.49 0.54 0.52 0.61 0.82 1.14 1.51 1.90 1.96 2.08 2.19 2.19 2.36 2.44 2.54 2.48 2.50 2.50 2.47 2.36 2.34 2.26 2.24 2.13 1.93 1.67 1.56 1.48 1.40 1.39 1.22 1.08 1.02 0.91 0.92 0.86 0.79 0.72 0.61 0.50
0.65 0.52 0.48 0.46 0.41 0.44 0.47 0.47 0.51 0.52 0.52 0.52 0.61 0.81 1.18 1.60 1.90 2.00 2.23 2.37 2.48 2.58 2.73 2.75 2.70 2.74 2.70 2.60 2.41 2.23 2.10 2.08 2.11 1.98 1.91 1.77 1.64 1.49 1.37 1.22 1.09 1.05 0.96 0.92 0.85 0.74 0.66 0.59 0.55
0.53 0.43 0.43 0.50 0.50 0.47 0.46 0.47 0.57 0.51 0.50 0.57 0.67 0.92 1.22 1.62 1.97 2.15 2.42 2.57 2.69 2.85 2.92 3.00 2.96 2.86 2.76 2.75 2.64 2.29 2.04 1.87 1.93 1.97 1.97 1.89 1.67 1.49 1.42 1.28 1.22 1.12 1.01 0.99 0.96 0.84 0.72 0.65 0.62
0.43 0.41 0.49 0.57 0.62 0.52 0.51 0.52 0.57 0.55 0.53 0.65 0.78 0.98 1.21 1.59 2.08 2.31 2.60 2.85 2.81 3.03 3.18 3.31 3.21 3.08 2.82 2.66 2.66 2.46 2.16 1.96 1.90 1.88 1.89 2.00 1.87 1.68 1.61 1.41 1.36 1.28 1.18 1.13 1.11 1.03 0.98 0.86 0.77
0.48 0.57 0.62 0.66 0.70 0.58 0.60 0.70 0.61 0.56 0.53 0.63 0.77 0.97 1.19 1.52 1.96 2.28 2.54 2.73 2.94 3.13 3.37 3.48 3.47 3.34 3.03 2.76 2.71 2.59 2.38 2.20 2.05 1.77 1.75 1.88 1.96 1.93 1.88 1.60 1.47 1.40 1.37 1.38 1.34 1.25 1.17 1.09 0.96
0.78 0.92 0.86 0.61 0.67 0.65 0.75 0.81 0.56 0.55 0.58 0.60 0.69 0.89 1.11 1.33 1.69 2.04 2.41 2.64 2.86 3.19 3.40 3.52 3.55 3.51 3.30 2.99 2.86 2.77 2.57 2.41 2.27 2.04 1.86 1.82 1.89 2.03 2.09 1.78 1.54 1.45 1.46 1.44 1.39 1.32 1.21 1.06 1.01
1.11 0.91 0.70 0.54 0.56 0.70 0.71 0.74 0.60 0.57 0.60 0.57 0.60 0.77 1.05 1.24 1.45 1.72 2.11 2.47 2.66 3.02 3.30 3.60 3.59 3.51 3.44 3.31 3.19 3.08 2.95 2.72 2.51 2.23 2.01 1.98 1.98 2.09 2.24 1.93 1.65 1.58 1.56 1.48 1.47 1.42 1.37 1.20 1.06
0.90 0.58 0.48 0.50 0.53 0.65 0.61 0.54 0.60 0.62 0.62 0.57 0.61 0.70 0.91 1.17 1.24 1.45 1.80 2.27 2.49 2.83 3.16 3.39 3.71 3.69 3.75 3.75 3.62 3.48 3.36 3.13 2.84 2.47 2.16 2.10 2.07 2.11 2.30 2.19 1.92 1.84 1.76 1.64 1.52 1.46 1.48 1.46 1.35
0.72 0.60 0.46 0.37 0.42 0.59 0.56 0.48 0.56 0.57 0.61 0.61 0.62 0.68 0.75 0.96 1.13 1.37 1.69 2.07 2.39 2.59 2.91 3.09 3.35 3.62 3.74 3.70 3.46 3.28 3.16 3.22 3.11 2.78 2.48 2.42 2.29 2.16 2.23 2.29 2.18 2.03 1.92 1.77 1.67 1.61 1.56 1.59 1.64
0.88 0.81 0.56 0.40 0.36 0.55 0.58 0.51 0.54 0.57 0.60 0.60 0.63 0.63 0.68 0.80 0.99 1.24 1.64 1.84 2.07 2.31 2.50 2.81 2.95 3.31 3.44 3.34 3.34 3.24 3.23 3.26 3.26 3.09 2.83 2.71 2.59 2.40 2.30 2.27 2.26 2.18 2.09 1.99 1.94 1.86 1.81 1.71 1.68
0.92 0.78 0.65 0.58 0.51 0.61 0.72 0.70 0.56 0.56 0.54 0.49 0.51 0.51 0.61 0.70 0.82 1.03 1.39 1.68 1.81 2.06 2.33 2.44 2.61 2.89 3.23 3.35 3.55 3.69 3.69 3.49 3.30 3.18 3.09 2.91 2.85 2.73 2.50 2.37 2.37 2.34 2.22 2.10 2.06 2.03 2.05 2.04 1.96
0.96 0.58 0.64 0.70 0.92 0.93 0.77 0.98 0.67 0.55 0.50 0.48 0.50 0.49 0.57 0.66 0.75 0.90 1.03 1.31 1.52 1.71 2.10 2.41 2.61 2.80 3.02 3.43 3.51 3.45 3.34 3.11 2.87 2.93 3.03 3.03 2.96 2.92 2.73 2.63 2.60 2.51 2.35 2.24 2.25 2.22 2.23 2.27 2.23
0.86 0.60 0.70 0.82 1.02 1.05 0.73 0.86 0.69 0.48 0.50 0.51 0.52 0.54 0.65 0.77 0.83 0.88 0.94 1.09 1.27 1.45 1.83 2.20 2.48 2.83 3.08 3.25 3.35 3.43 3.25 3.00 2.93 2.93 2.95 2.89 2.84 2.85 2.82 2.74 2.81 2.73 2.58 2.45 2.44 2.44 2.43 2.42 2.38
0.94 0.98 1.07 1.16 1.53 1.55 0.69 0.70 0.69 0.59 0.61 0.57 0.55 0.58 0.71 0.82 0.86 0.85 0.92 1.06 1.22 1.34 1.56 1.94 2.23 2.41 2.73 3.05 3.13 3.19 3.18 3.13 3.03 2.86 2.81 2.84 2.83 2.82 2.82 2.82 2.82 2.80 2.77 2.67 2.58 2.53 2.51 2.48 2.43
1.38 1.98 2.63 2.59 2.28 1.25 0.47 0.56 0.67 0.62 0.65 0.68 0.69 0.70 0.76 0.80 0.82 0.83 0.91 1.05 1.24 1.39 1.50 1.64 1.85 2.01 2.24 2.53 2.73 2.79 2.93 3.03 2.89 2.75 2.60 2.60 2.62 2.63 2.66 2.71 2.75 2.76 2.72 2.75 2.73 2.68 2.56 2.52 2.50
1.43 1.71 2.06 1.74 1.10 0.64 0.46 0.56 0.64 0.61 0.64 0.66 0.70 0.69 0.70 0.76 0.81 0.82 0.84 0.92 1.07 1.27 1.45 1.50 1.60 1.73 1.92 2.09 2.26 2.46 2.64 2.84 2.83 2.74 2.54 2.45 2.41 2.39 2.53 2.59 2.52 2.52 2.58 2.65 2.69 2.65 2.53 2.45 2.39
1.30 1.31 1.19 1.48 0.94 0.65 0.55 0.50 0.49 0.44 0.46 0.55 0.61 0.61 0.67 0.76 0.79 0.80 0.80 0.83 0.96 1.10 1.29 1.39 1.48 1.59 1.68 1.82 1.98 2.18 2.32 2.44 2.50 2.58 2.52 2.45 2.38 2.33 2.29 2.31 2.32 2.25 2.27 2.39 2.52 2.51 2.42 2.35 2.27
1.07 1.09 1.35 1.89 1.52 0.93 0.56 0.44 0.59 0.57 0.54 0.59 0.62 0.68 0.77 0.81 0.77 0.76 0.79 0.85 0.95 1.00 1.13 1.31 1.41 1.48 1.51 1.60 1.70 1.83 2.01 2.19 2.27 2.36 2.32 2.28 2.30 2.32 2.23 2.09 2.06 2.04 2.03 2.10 2.21 2.23 2.19 2.18 2.11
1.02 1.29 1.53 1.56 1.26 1.12 0.83 0.71 0.72 0.68 0.64 0.67 0.68 0.73 0.81 0.85 0.83 0.82 0.85 0.94 1.03 1.01 1.08 1.26 1.37 1.49 1.53 1.54 1.57 1.61 1.68 1.82 1.98 2.11 2.17 2.12 2.17 2.23 2.21 2.05 1.97 1.93 1.87 1.88 1.93 1.90 1.93 1.98 1.98
0.89 1.01 1.27 1.70 1.28 0.94 0.90 0.88 0.71 0.67 0.64 0.64 0.67 0.71 0.76 0.80 0.83 0.88 0.94 0.94 0.97 1.07 1.15 1.24 1.32 1.45 1.56 1.60 1.60 1.61 1.63 1.65 1.75 1.82 1.98 2.02 2.10 2.11 2.17 2.11 1.99 1.89 1.81 1.77 1.79 1.77 1.72 1.73 1.76